Regional Weather Roundup
Issued by NWS

Home | Current Version | Previous Version | Graphics & Text | Print | Product List | Glossary On
Versions: 1 2 3 4 5 6 7 8 9 10 11 12 13 14 15 16 17 18 19 20 21 22 23 24 25 26 27 28 29 30 31 32 33 34 35 36 37 38 39 40 41 42 43 44 45 46 47 48 49 50
000
ASUS43 KDMX 201907
RWRIA

WEATHER ROUNDUP FOR IOWA
NATIONAL WEATHER SERVICE DES MOINES IA
100 PM CST THU NOV 20 2014

NOTE: "FAIR" INDICATES FEW OR NO CLOUDS BELOW 12,000 FEET WITH NO
SIGNIFICANT WEATHER AND/OR OBSTRUCTIONS TO VISIBILITY.

* - THESE STATIONS ARE NOT NWS STATIONS...THUS NOT UNDER NWS
QUALITY CONTROL.  THEY ALSO DO NOT REPORT WEATHER SUCH
AS PRECIPITATION OR FOG.

IAZ001>003-012>014-020>022-031>034-043>046-202000-
   NORTHWEST IOWA

CITY           SKY/WX    TMP DP  RH WIND       PRES   REMARKS
CARROLL *      SUNNY     25  14  63 NW13      30.19S WCI  13
CHEROKEE *     SUNNY     23  12  63 NW13      30.19F WCI  11
DENISON *      MOSUNNY   25  14  63 NW8       30.18S WCI  16
LE MARS *      SUNNY     23  12  63 NW13      30.20F WCI  11
ORANGE CITY *  SUNNY     21  12  68 NW17      30.17F WCI   7
SHELDON *      SUNNY     19  10  68 NW13      30.17F WCI   7
SIOUX CITY     SUNNY     26  14  60 NW12      30.21F WCI  16
SPENCER        SUNNY     19  11  70 W13       30.18F WCI   6
STORM LAKE *   SUNNY     21  10  63 NW14      30.18S WCI   8
$$

IAZ055>058-069>071-079>083-090>094-202000-
   SOUTHWEST IOWA

CITY           SKY/WX    TMP DP  RH WIND       PRES   REMARKS
ATLANTIC *     SUNNY     27  16  63 NW9       30.20F WCI  17
AUDUBON *      SUNNY     27  12  54 NW8       30.19F WCI  18
CLARINDA *     CLOUDY    30  18  59 NW7G14    30.24F WCI  23
COUNCIL BLFS * CLOUDY    28  18  64 VRB5      30.19F WCI  23
CRESTON *      SUNNY     25  16  68 NW13      30.20F WCI  13
HARLAN  *      MOSUNNY   27  18  69 NW13G20   30.23F WCI  16
LAMONI         MOSUNNY   27  16  63 W13       30.21F WCI  16
RED OAK *      CLOUDY    28  18  64 VRB8      30.23F WCI  20
SHENANDOAH *   CLOUDY    30  18  59 N7        30.24F WCI  23
$$

IAZ047>049-059>061-072>074-084-202000-
   CENTRAL IOWA

CITY           SKY/WX    TMP DP  RH WIND       PRES   REMARKS
AMES           SUNNY     24  12  60 NW17      30.19F WCI  11
ANKENY *       SUNNY     27  14  59 NW13      30.20F WCI  16
CHARITON *     SUNNY     28  12  50 W10       30.19F WCI  19
DES MOINES     MOSUNNY   29  12  49 NW10      30.20F WCI  20
GRINNELL*      SUNNY     25  14  63 W16       30.18F WCI  12
KNOXVILLE *    SUNNY     28  10  47 W13G20    30.18F WCI  18
MARSHALLTOWN   SUNNY     22  12  65 W17       30.17F WCI   8
PELLA *        SUNNY     28  14  54 NW14      30.20F WCI  17
PERRY *          N/A     27  16  63 NW10      30.20S WCI  17
$$

IAZ004>006-015-016-023>025-035-036-202000-
   NORTH CENTRAL IOWA

CITY           SKY/WX    TMP DP  RH WIND       PRES   REMARKS
ALGONA *       SUNNY     18  10  73 W10       30.18S WCI   6
CLARION *      SUNNY     19  12  73 NW12      30.18S WCI   7
ESTHERVILLE    SUNNY     18  10  71 NW10      30.17S WCI   6
FORT DODGE *   SUNNY     21  10  63 NW9       30.19S WCI  11
MASON CITY     SUNNY     19   9  65 NW13      30.16F WCI   6
FOREST CITY *  SUNNY     19  14  79 W13       30.16S WCI   7
IOWA FALLS *     N/A     21  12  68 W13       30.18S HAZE    WCI   9
$$

IAZ007>011-017>019-026>030-037>042-050>054-066-202000-
   NORTHEAST IOWA

CITY           SKY/WX    TMP DP  RH WIND       PRES   REMARKS
CEDAR RAPIDS   SUNNY     24  14  65 NW13      30.16F WCI  12
CHARLES CITY * SUNNY     19   5  53 W15       30.15S WCI   5
CLINTON *      SUNNY     27   7  43 NW23G30   30.16F WCI  12
DECORAH *      SUNNY     18   3  53 NW15G28   30.11S WCI   3
DUBUQUE        SUNNY     21   9  59 W16       30.11S WCI   7
MONTICELLO *   SUNNY     23   9  54 W20       30.15S WCI   8
OELWEIN *      SUNNY     19   7  58 NW17      30.14S WCI   4
WATERLOO       SUNNY     22  10  60 NW13      30.16F WCI  10
$$

IAZ064-065-067-068-078-202000-
   EAST CENTRAL IOWA

CITY           SKY/WX    TMP DP  RH WIND       PRES   REMARKS
DAVENPORT      SUNNY     27   8  44 W18       30.15F WCI  14
IOWA CITY      MOSUNNY   27  14  58 W15       30.19F WCI  15
MT. PLEASANT * SUNNY     30  12  47 NW9       30.18F WCI  22
MUSCATINE *    SUNNY     30  12  47 NW15G23   30.19F WCI  19
QUAD CITIES    SUNNY     29   9  43 W18       30.16S WCI  16
$$

IAZ062-063-075>077-085>089-095>099-202000-
   SOUTHEAST IOWA

CITY           SKY/WX    TMP DP  RH WIND       PRES   REMARKS
BURLINGTON     SUNNY     30  13  49 NW12      30.18F WCI  20
FAIRFIELD *    SUNNY     28  14  54 NW15G21   30.19S WCI  17
FORT MADISON * SUNNY     32  16  51 W15       30.19F WCI  22
KEOKUK *       SUNNY     32  12  43 NW9G25    30.19S WCI  24
OSKALOOSA *      N/A     28  14  54 NW12      30.19F WCI  18
CENTERVILLE *  SUNNY     30  16  55 W7        30.21S WCI  23
OTTUMWA        SUNNY     29  13  51 NW14      30.19F WCI  18
WASHINGTON *   SUNNY     30  14  51 NW18      30.18F WCI  18
$$

ABBREVIATIONS USED IN REMARKS
   TC - TEMPERATURES IN CELSIUS
  WCI - WIND CHILL INDEX
   HX - HEAT INDEX
  VSB - VISIBILITY
$$



USA.gov is the U.S. government's official web portal to all federal, state and local government web resources and services.